Location: Castro Valley
(37.6940°N, 122.0850°W)
Time: 09:45:09
(UTC-07:00)

PANSAT - Visible Passes

Search period start: 25 August 2016 00:00
Search period end: 04 September 2016 00:00
Orbit: 479 x 486 km, 28.5° (Epoch: 25 August)

Date Brightness Start Highest point End Pass type
(mag) Time Alt. Az. Time Alt. Az. Time Alt. Az.
25 Aug 9.4 21:24:44 10° SW 21:26:49 19° SSW 21:26:49 19° SSW visible
26 Aug 9.2 20:55:44 10° SW 20:58:35 20° S 20:59:26 19° SSE visible
27 Aug 9.3 20:26:44 10° SW 20:29:35 20° S 20:32:00 12° SE visible
28 Aug 9.9 21:37:35 10° SW 21:38:43 14° SSW 21:38:43 14° SSW visible
29 Aug 9.6 21:08:36 10° SW 21:10:53 15° SSW 21:11:15 15° S visible
30 Aug 9.7 20:39:37 10° SW 20:41:53 15° SSW 20:43:47 11° SSE visible
31 Aug 9.8 20:10:38 10° SW 20:12:52 15° SSW 20:15:06 10° SSE visible
